This demonstration page uses our WeatherBlox Daily Observations layout. Learn more.

Left ArrowRight Arrow

Hourly Observations for July 26, 2018

Temp ( °F °C ) Dew Point ( °F °C ) Humidity (%) Winds ( mph kmh ) Pressure ( in mb ) Visibility ( mi km ) Precip ( " mm )
12:51 am 00:51 Clear 86 30 50 10 29 29 N N/A 29.8 1009 10 16.0934 N/A
1:51 am 01:51 Clear 87 30.6 52 11.1 30 30 WNW 10 17 29.79 1009 10 16.0934 N/A
2:51 am 02:51 Clear 87 30.6 52 11.1 30 30 NW 10 17 29.78 1009 10 16.0934 N/A
3:51 am 03:51 Clear 87 30.6 52 11.1 30 30 NW 12 19 29.8 1009 10 16.0934 N/A
4:51 am 04:51 Clear 86 30 53 11.7 32 32 NW 8 13 29.83 1010 10 16.0934 N/A
5:51 am 05:51 Sunny 83 28.3 54 12.2 37 37 NNW 7 11 29.84 1011 10 16.0934 N/A
6:51 am 06:51 Sunny 87 30.6 55 12.8 34 34 NW 7 11 29.85 1011 10 16.0934 N/A
7:51 am 07:51 Sunny 92 33.3 54 12.2 28 28 WNW 13 20 29.86 1011 10 16.0934 N/A
8:51 am 08:51 Sunny 95 35 54 12.2 25 25 WNW 15 24 29.85 1011 10 16.0934 N/A
9:51 am 09:51 Sunny 97 36.1 55 12.8 24 24 WNW 18 30 29.84 1010 10 16.0934 N/A
10:51 am 10:51 Sunny 100 37.8 54 12.2 21 21 WNW 15 24 29.82 1010 10 16.0934 N/A
11:51 am 11:51 Sunny 102 38.9 52 11.1 19 19 W 17 28 29.8 1009 10 16.0934 N/A
12:51 pm 12:51 Sunny 103 39.4 50 10 17 17 NW 21 33 29.76 1008 10 16.0934 N/A
1:51 pm 13:51 Sunny 105 40.6 50 10 16 16 W 18 30 29.73 1007 10 16.0934 N/A
2:51 pm 14:51 Sunny 106 41.1 49 9.4 15 15 WNW 16 26 29.7 1006 10 16.0934 N/A
3:00 pm 15:00 Sunny with Nearby Thunderstorms 108 42 48 9 14 14 WNW 15 24 29.56 1001 10 16.0934 N/A
3:35 pm 15:35 Sunny 108 42.2 49 9.4 14 14 WNW 18 30 29.53 1000 10 16.0934 N/A
3:51 pm 15:51 Sunny 106 41.1 48 8.9 14 14 NNW 21 33 29.67 1005 10 16.0934 N/A
3:59 pm 15:59 Sunny 105 40.6 49 9.4 15 15 N 25 41 29.56 1001 10 16.0934 N/A
4:51 pm 16:51 Sunny 102 38.9 48 8.9 16 16 NNW 20 31 29.68 1005 10 16.0934 N/A
5:35 pm 17:35 Sunny 98 36.7 49 9.4 19 19 NE 13 20 29.62 1003 10 16.0934 N/A
5:51 pm 17:51 Sunny 98 36.7 49 9.4 19 19 ESE 7 11 29.73 1007 10 16.0934 N/A
6:51 pm 18:51 Sunny 93 33.9 52 11.1 25 25 E 16 26 29.78 1009 10 16.0934 N/A
7:51 pm 19:51 Clear 94 34.4 53 11.7 25 25 E 12 19 29.81 1010 10 16.0934 N/A
8:51 pm 20:51 Partly Cloudy 91 32.8 53 11.7 27 27 W 6 9 29.8 1009 10 16.0934 N/A
9:51 pm 21:51 Clear 87 30.6 57 13.9 36 36 NW 14 22 29.83 1010 10 16.0934 N/A
10:51 pm 22:51 Partly Cloudy 86 30 58 14.4 39 39 S 10 17 29.85 1011 10 16.0934 N/A
11:51 pm 23:51 Mostly Clear 83 28.3 61 16.1 48 48 SSE 14 22 29.88 1012 10 16.0934 N/A

Powered by AerisWeather